Wind_Speed
86 81 79 74 69 63 68 71 66 62 56 61 59 53 49 50 40 47 46 46 48 48 49 50 47 45 43 42 42 40 38 39
94 88 83 80 74 69 66 74 72 66 63 69 66 60 58 49 47 53 35 50 50 53 50 47 48 47 44 42 42 42 43 40
95 94 88 85 80 76 71 78 78 72 70 73 73 66 62 56 60 48 56 60 53 53 55 56 53 51 51 48 45 40 38 37
86 94 93 90 86 83 78 77 85 82 77 74 75 71 64 59 58 57 49 64 55 55 54 52 53 53 52 47 44 41 39 37
87 89 95 94 92 91 86 81 83 85 84 77 74 77 72 71 69 61 65 68 67 61 57 55 50 50 49 48 46 45 42 37
94 90 92 98 98 96 92 90 85 88 84 82 82 78 79 76 68 60 59 64 68 68 59 57 54 52 50 46 44 41 39 38
98 96 95 99 104 103 99 96 89 88 84 82 79 81 77 77 74 66 58 63 68 68 61 59 57 55 51 48 42 40 38 39
102 109 104 100 103 104 103 99 94 91 85 86 82 81 81 78 65 64 62 65 65 65 66 63 60 56 52 48 44 42 42 42
94 97 98 99 103 105 106 103 99 92 91 85 86 83 84 86 82 69 66 66 68 67 64 65 63 58 52 50 49 45 43 45
97 97 95 95 97 103 105 105 102 94 95 91 83 84 82 82 81 81 74 72 65 66 67 61 61 58 55 51 50 52 51 50
103 101 99 98 96 98 103 107 106 99 95 96 91 78 85 82 82 83 78 77 70 64 59 62 57 55 52 51 50 47 51 52
108 105 103 103 100 99 98 103 106 104 95 93 97 85 75 86 84 84 80 83 72 71 62 59 58 55 52 51 50 50 47 46
109 108 103 103 101 98 101 100 105 106 103 96 90 95 84 83 88 88 86 88 80 71 62 60 63 56 53 52 49 48 50 47
106 106 103 103 104 103 102 100 105 109 105 104 96 92 88 86 80 87 88 86 84 78 75 66 62 62 60 58 57 54 52 54
106 105 101 104 106 104 105 102 98 106 106 104 100 94 88 87 77 79 84 92 87 81 72 72 70 67 66 61 59 63 64 61
108 106 100 102 105 106 106 103 102 100 104 104 100 97 93 77 84 78 82 81 88 88 80 78 73 72 69 68 66 67 66 64
104 109 103 99 106 105 105 106 106 106 99 103 103 100 99 92 81 79 76 82 80 79 81 82 77 75 73 73 73 74 71 69
99 110 107 103 106 107 104 108 109 105 106 101 98 99 101 99 91 82 81 78 76 78 74 72 73 72 74 74 76 70 73 72
96 103 107 106 107 109 108 104 108 106 103 102 96 91 106 103 101 91 84 81 76 72 70 67 68 68 71 71 72 73 75 74
Wind_Direction
227 226 225 225 225 225 219 224 226 220 217 216 213 216 214 216 227 230 234 228 227 228 234 233 237 240 243 248 247 254 259 263
226 225 221 223 224 224 221 222 224 223 218 216 218 215 216 216 218 233 237 239 228 227 227 238 243 244 246 249 252 253 258 263
224 224 221 220 221 222 220 219 221 224 221 220 222 222 219 218 206 212 207 231 232 229 229 227 233 239 243 243 247 251 254 260
222 223 221 216 217 219 218 219 217 219 222 220 219 224 226 227 222 227 217 230 225 231 230 233 235 237 242 246 247 248 249 251
218 221 220 215 214 215 217 215 219 217 220 222 221 224 223 225 227 226 226 228 233 234 232 232 235 238 242 245 245 247 248 250
216 217 219 216 212 211 214 213 213 218 217 221 223 224 226 228 232 232 233 229 236 236 235 236 233 236 240 243 244 248 249 247
215 212 215 216 213 210 211 215 209 217 215 216 221 225 225 228 233 235 236 229 229 234 234 237 236 236 239 241 242 245 247 249
214 207 209 213 213 212 210 212 210 213 213 216 215 221 222 225 225 232 235 232 233 234 231 232 236 238 239 240 241 243 244 245
221 220 214 212 209 212 211 211 213 211 214 211 216 217 221 226 226 229 231 234 234 235 236 232 235 239 241 245 242 245 243 244
216 218 216 216 215 213 210 211 211 214 213 213 214 215 219 223 228 229 230 233 232 234 235 237 239 238 239 242 248 246 245 247
216 215 213 213 213 215 214 212 212 213 215 215 214 218 220 221 226 226 231 232 228 233 232 233 233 237 240 241 243 250 252 250
218 216 213 209 210 212 213 213 214 213 213 216 215 213 222 223 224 227 231 230 226 229 231 231 229 233 237 242 246 250 252 253
217 217 213 210 208 212 211 212 214 215 214 213 215 214 219 225 228 232 233 233 228 225 231 233 232 233 235 240 244 246 249 252
215 217 213 210 208 210 212 211 212 215 216 217 215 216 216 221 227 231 231 234 230 230 230 230 234 237 237 240 247 251 253 257
215 216 213 211 208 210 210 209 212 215 217 218 216 215 216 221 224 230 231 232 232 231 231 232 233 238 238 239 249 252 257 260
214 216 214 211 210 209 209 209 210 212 216 219 218 216 212 216 221 228 233 233 235 236 236 235 237 239 243 245 252 250 251 253
213 214 215 211 211 210 209 209 211 211 212 217 220 220 216 213 217 219 226 232 233 238 238 239 239 242 247 249 250 251 250 250
211 212 214 212 210 210 209 209 211 211 212 215 219 225 221 218 214 216 222 227 231 233 235 238 241 243 244 245 247 248 250 250
210 210 212 210 209 210 210 210 211 212 212 214 212 220 220 221 217 215 218 224 229 231 232 233 236 238 243 242 244 247 249 253
Height
10622 10635 10643 10656 10669 10680 10690 10696 10704 10715 10726 10735 10741 10751 10758 10765 10770 10775 10779 10782 10786 10789 10792 10796 10799 10802 10806 10809 10812 10814 10816 10819
10601 10613 10626 10639 10654 10666 10675 10683 10692 10703 10714 10723 10729 10734 10743 10753 10763 10764 10773 10774 10779 10783 10786 10789 10792 10795 10798 10801 10805 10808 10810 10812
10583 10593 10607 10623 10639 10650 10660 10669 10680 10689 10700 10708 10717 10725 10733 10743 10750 10752 10765 10766 10770 10774 10778 10782 10786 10789 10791 10794 10798 10802 10804 10806
10562 10572 10587 10602 10619 10632 10643 10651 10663 10673 10682 10694 10707 10717 10728 10736 10742 10746 10754 10755 10758 10764 10769 10774 10778 10781 10784 10788 10792 10795 10798 10799
10539 10551 10563 10582 10596 10607 10621 10635 10647 10657 10668 10683 10695 10702 10711 10715 10720 10726 10736 10743 10750 10755 10760 10765 10769 10773 10777 10782 10785 10787 10790 10793
10512 10527 10542 10557 10568 10585 10598 10612 10626 10639 10656 10668 10678 10688 10696 10704 10713 10722 10730 10738 10740 10745 10751 10755 10760 10764 10768 10774 10777 10780 10784 10786
10475 10499 10514 10527 10544 10562 10579 10594 10609 10622 10641 10652 10663 10673 10683 10694 10702 10709 10717 10728 10723 10735 10742 10745 10750 10755 10760 10766 10770 10772 10776 10779
10451 10449 10473 10501 10528 10548 10562 10576 10593 10606 10623 10635 10647 10657 10670 10680 10687 10694 10702 10711 10718 10725 10728 10732 10738 10745 10752 10757 10761 10763 10767 10770
10462 10478 10490 10493 10502 10524 10544 10561 10580 10593 10607 10618 10629 10641 10655 10665 10675 10682 10691 10698 10705 10710 10716 10720 10728 10737 10743 10748 10752 10755 10757 10760
10433 10450 10479 10494 10508 10516 10530 10545 10564 10577 10591 10602 10614 10629 10642 10651 10660 10670 10677 10683 10692 10699 10705 10712 10719 10726 10732 10738 10741 10744 10746 10749
10409 10424 10444 10468 10489 10507 10521 10531 10547 10565 10575 10588 10604 10619 10628 10636 10644 10656 10663 10671 10678 10685 10694 10701 10707 10714 10721 10726 10729 10734 10737 10739
10386 10405 10424 10439 10463 10482 10502 10522 10533 10549 10562 10572 10590 10608 10615 10624 10631 10640 10649 10657 10665 10673 10680 10688 10695 10701 10709 10715 10719 10723 10727 10729
10364 10383 10406 10427 10448 10466 10484 10504 10521 10533 10545 10554 10574 10596 10604 10611 10622 10627 10636 10643 10651 10659 10668 10676 10684 10692 10697 10703 10706 10712 10715 10718
10345 10363 10388 10411 10430 10445 10464 10484 10500 10513 10528 10542 10558 10575 10589 10596 10603 10610 10621 10630 10640 10648 10656 10665 10673 10678 10685 10690 10694 10699 10703 10705
10328 10345 10371 10391 10410 10427 10446 10467 10485 10502 10518 10529 10547 10560 10572 10584 10591 10597 10606 10616 10624 10635 10645 10652 10660 10666 10674 10679 10683 10687 10689 10691
10311 10331 10352 10374 10394 10410 10431 10454 10463 10483 10502 10516 10534 10541 10554 10566 10578 10585 10592 10600 10611 10620 10631 10640 10649 10655 10660 10664 10667 10671 10673 10676
10297 10316 10338 10359 10377 10395 10415 10432 10444 10463 10477 10498 10513 10520 10538 10552 10562 10572 10577 10585 10596 10604 10617 10627 10634 10639 10643 10646 10648 10655 10659 10661
10281 10299 10321 10339 10358 10377 10396 10413 10428 10447 10464 10478 10495 10506 10521 10534 10545 10552 10561 10571 10579 10589 10598 10607 10615 10621 10624 10628 10633 10638 10642 10644
10267 10284 10300 10319 10338 10355 10377 10395 10414 10430 10452 10465 10476 10483 10497 10509 10525 10538 10544 10555 10563 10573 10582 10590 10598 10605 10607 10612 10616 10622 10626 10627